Lid_Strength_Index
11 10 10 10 10 11 12 11 12 13 14 12 10 10 8 7 7 6 6 5 5 5 4 4 3 3 2 2 2 1 1 2 2 3 3 4 5 6 6 5 5 5 5 6
13 10 10 11 10 9 10 10 11 12 15 9 8 8 8 7 7 7 6 6 5 4 4 4 3 3 2 2 2 2 2 3 2 3 3 3 4 5 5 5 5 7 8 7
15 9 10 13 11 10 11 9 11 14 12 9 9 8 8 7 7 7 6 6 5 4 4 4 3 2 2 2 2 2 2 3 3 3 3 3 4 5 5 6 7 8 8 8
15 12 17 11 9 8 11 11 10 10 9 9 8 7 7 6 6 6 6 5 5 4 4 3 2 3 3 3 3 3 3 3 3 3 3 3 3 4 5 6 7 7 7 8
17 15 13 11 10 11 12 13 9 9 9 8 7 7 8 6 5 5 5 4 4 4 4 3 3 3 3 4 4 4 4 3 2 2 2 2 2 3 4 6 6 6 6 7
15 17 18 13 9 7 8 16 9 8 9 9 8 12 10 6 5 5 5 5 4 3 3 3 3 3 3 4 4 4 2 2 2 2 1 1 1 2 2 4 4 4 5 6
15 17 15 10 8 7 15 14 8 8 8 8 9 8 6 5 5 5 5 5 3 3 3 2 3 3 4 4 3 3 2 2 1 1 1 3 3 3 4 5 5 5 5 4
14 16 17 7 9 12 9 7 7 7 7 7 7 6 6 5 6 6 6 4 3 3 3 2 3 4 5 5 3 3 2 2 2 2 2 2 3 4 4 4 4 3 3 3
13 12 9 7 8 7 6 7 7 7 6 7 6 6 5 5 6 6 4 3 3 3 4 4 4 3 4 3 2 2 3 3 3 2 2 2 3 3 3 3 3 2 2 3
12 9 9 8 6 6 6 6 6 5 6 5 6 6 6 5 5 4 4 4 3 3 4 4 3 3 3 3 3 3 3 2 2 3 2 2 2 2 2 2 3 2 3 4
11 9 8 7 6 6 6 5 5 5 5 5 6 6 7 5 4 4 4 3 3 3 4 4 3 3 3 2 3 3 2 2 2 3 3 4 5 5 4 5 6 6 6 6
13 9 9 8 6 5 6 6 5 5 6 6 6 6 6 6 4 3 4 3 4 3 3 3 3 3 2 2 2 3 3 3 3 3 4 5 6 8 8 8 8 8 7 7
9 7 7 6 5 5 5 5 6 6 6 7 6 6 5 4 4 3 3 3 3 3 3 2 3 2 2 1 2 3 3 4 4 4 4 5 7 7 8 8 7 8 8 8
5 6 7 6 7 5 5 6 6 6 6 6 5 4 4 4 3 3 3 3 2 3 3 2 2 2 1 1 2 3 3 5 3 3 3 4 5 5 5 7 8 8 7 8
6 5 6 5 5 5 5 6 6 6 5 4 4 4 4 4 4 4 3 2 2 2 2 2 2 3 2 2 2 2 5 4 4 4 5 5 5 5 4 5 6 6 7 8
6 5 5 6 5 5 6 5 5 5 4 4 4 4 3 3 3 3 4 3 4 6 4 3 3 2 1 3 4 4 4 5 5 5 5 5 5 5 5 5 5 6 7 8
7 8 7 6 6 5 5 4 4 4 4 4 4 3 3 3 4 4 5 5 5 5 3 3 3 2 2 3 4 4 4 4 5 4 4 4 3 3 5 5 6 8 9 9
5 5 5 5 5 5 5 4 4 4 4 3 3 3 3 4 4 5 5 5 5 4 4 4 3 3 3 3 3 2 4 5 5 5 3 3 5 6 6 7 8 8 9 9
4 5 4 4 4 4 4 4 4 3 3 3 3 4 3 4 4 5 5 5 5 5 5 4 5 4 5 4 3 4 4 3 4 4 6 7 7 7 7 7 7 8 8 8
4 4 4 4 4 4 4 3 3 3 3 3 3 4 4 4 4 4 5 5 5 5 4 5 5 5 5 5 6 5 4 4 4 7 7 8 8 9 8 8 7 7 6 7
5 4 5 5 4 3 3 3 3 4 3 3 3 4 3 4 4 4 6 6 5 5 5 7 5 4 5 5 5 6 6 5 6 7 6 7 7 8 9 8 7 6 6 7
4 4 4 4 4 4 3 3 3 3 3 3 3 3 4 4 4 5 4 4 4 7 6 6 5 7 5 7 5 5 5 5 6 6 7 7 7 8 8 7 7 6 6 6
4 4 4 4 4 4 4 3 3 3 3 3 3 3 4 4 4 5 5 4 5 6 5 5 8 11 11 6 6 5 5 5 5 5 6 6 6 7 7 7 7 6 7 6
5 4 4 4 4 4 5 5 4 3 3 3 3 3 4 6 6 5 4 7 8 8 5 6 9 12 13 7 6 7 6 5 5 5 5 8 6 6 6 6 6 6 6 7
5 5 4 4 5 5 5 5 4 4 4 4 4 4 4 3 3 4 4 4 10 7 6 13 13 13 8 7 7 7 7 7 7 5 4 5 5 6 6 6 6 5 5 5
5 4 5 4 4 4 4 4 4 4 3 3 4 4 4 4 4 4 4 5 6 7 7 9 9 8 8 7 7 8 8 7 7 6 5 5 5 6 5 5 5 6 5 5
4 6 4 4 4 3 3 4 3 4 3 3 3 3 3 3 4 5 6 5 6 6 7 8 8 9 8 8 7 8 8 7 7 6 6 6 5 5 4 5 5 5 5 5